sat.trackr.live / text

‹ back to catalog

STARLINK-35059

NORAD 65454 · 2025-194W

PAYLOAD ACTIVE UNKNOWN

§ Identity

Operator
Country
US
Launch date
2025-09-03
Launch site
AFWTR
Launch vehicle
Mass (kg)
RCS (m²)

Purposes: comms

External: N2YO · Heavens-Above · Gunter

§ Orbital elements

Epoch: 2026-09-20T22:00:03.000096Z

Period
94.53 min
Inclination
97.2843°
Eccentricity
0.0001826
Mean motion
15.23290258 rev/d
Perigee alt
494.7 km
Apogee alt
497.2 km
Semi-major
6,874.1 km
B*
3.2839e-3
RAAN
113.5190°
Arg perigee
79.6602°
Mean anomaly
158.7005°
Rev number
568

§ Raw data

STARLINK-350591 65454U 25194W   26263.91670139  .00078577  00000+0  32839-2 0  99902 65454  97.2843 113.5190 0001826  79.6602 158.7005 15.23290258  5688

JSON: /api/v1/satellites/65454 · /tle

For live sub-satellite position, see the globe view (requires WebGL).

§ Visibility from observer

Set your observer location to see the next 7 days of passes ≥ 10°. The values pass through the URL so the page stays shareable.

No JS? Fill the form by hand. The geolocation button needs JavaScript.